Location: Bats
(43.6587°N, 0.4584°W)
Time: 10:12:17
(UTC+00:00)

Cosmos 1484 Rocket - Pass Details

Date: 12 January 2026
Orbit: 439 x 467 km, 97.6° (Epoch: 11 February)

Event Time Altitude Azimuth Distance (km) Brightness Sun altitude
Rises 17:26:06 0° 183° (S) 2,428 6.5 -7.2°
Reaches altitude 10° 17:28:13 10° 192° (SSW) 1,559 5.6 -7.5°
Maximum altitude 17:31:20 37° 261° (W) 707 4.2 -8.0°
Drops below altitude 10° 17:34:28 10° 331° (NNW) 1,563 5.2 -8.6°
Sets 17:36:36 0° 340° (NNW) 2,437 6.1 -8.9°
